Weather in Yubileyny

Russia / Kaluga Oblast     54°46′02″N   36°17′01″E
temp.,
°C
wind,
m/s
gust,
m/s
humid.,
%
clouds,
%
prec.,
mm/h
press.,
hPa
HPBL,
m
10 august, wed
wed1000:00+14nne3693100 0.0 1022170
03:00+13nne2697100 0.0 1022137
06:00+14nne3891100 0.1 1022224
09:00+17nne5874100 0.1 1022456
12:00+21ne565768 0.1 10221494
15:00+20e466653 0.5 1022741
18:00+20ese3671100 0.3 1022495
21:00+16nne2380100 0.3 102359
11 august, thu
thu1100:00+17ne4106564 0.0 1024332
03:00+13ne39818 0.0 1024188
06:00+13ne4108292 0.0 1025209
09:00+18ene57627 0.0 1025446
12:00+22ene45485 0.0 10251237
15:00+24ene44455 0.0 10231508
18:00+23ene245514 0.0 1023395
21:00+17e22721 0.0 102416
12 august, fri
fri1200:00+15ene22730 0.0 102416
03:00+14ene22780 0.0 102523
06:00+14ene22770 0.0 102521
09:00+20ene23560 0.0 1025333
12:00+24e22440 0.0 10251083
15:00+26ene11420 0.0 10241513
18:00+25n11520 0.0 1023854
21:00+19se12650 0.0 102311
13 august, sat
sat1300:00+16nne22750 0.0 102411
03:00+15ne11791 0.0 102411
06:00+15e128237 0.0 102411
09:00+21ese236113 0.0 1023377
12:00+25ene3345100 0.0 10231192
15:00+26e344199 0.0 10211343
18:00+25se245398 0.0 1021196
21:00+21ese2257100 0.0 102114
14 august, sun
sun1400:00+19ene2267100 0.2 102031
03:00+18ene377398 0.3 1020140
06:00+16e3982100 0.3 1020179
09:00+21ese486785 0.6 1019349
12:00+24ese2463100 1.1 1019739
15:00+26se5653100 1.1 1018940
18:00+24ese4765100 0.0 1018373
21:00+19e3680100 0.0 1018110